Saturday, October 25, 2014
15:22 UTC
  |  Log In   |  Register Free
Airport Search:

Owatonna Degner Regional Airport
(KOWA)

Owatonna Degner Regional Airport Diagram
No Airport Diagram Available

FAA data valid effective September 18, 2014 - November 13, 2014 (unless otherwise noted).

 
 
 
 
 
 
 
 
 
 
 
 
 
 

Current Aviation Weather for Owatonna Degner Regional Airport (KOWA)

The most recent METAR observation for KOWA was updated at: 1512
METAR Summary (Translated METAR)
KOWA
251455Z AUTO 30010KT 10SM CLR 13/03 A3006 RMK AO2
KFBL
251454Z AUTO 31008KT 10SM CLR 13/02 A3006 RMK AO2
(12.5 nm NW from KOWA)
KACQ
251454Z AUTO 31005KT 10SM CLR 12/01 A3009 RMK AO2
(13 nm SW from KOWA)
TAF
No TAF information found within 50 nm of KOWA
  Airport Weather Conditions for KOWA

 Current Weather at OWA
55° F
Fair
Northwest winds at 11.5 mph
OWA NOAA Radar

Pressure: 30.06 in
Humidity: 51%
Wind: Northwest at 11.5 MPH (10 KT)
Dew Point: 37.4°F
Visibility: 10.00 mi


Airport Weather Forecast for KOWA

Translated METAR and TAF for KOWA
Translated METAR for KOWA (1517 UTC 25 October 2014)
found at http://aviationweather.gov/adds/metars/
 
METAR text: KOWA 251515Z AUTO 29009KT 10SM CLR 13/03 A3007 RMK AO2
Conditions at: KOWA (OWATONNA , MN, US) observed 1515 UTC 25 October 2014
Temperature: 13.0°C (55°F)
Dewpoint: 3.0°C (37°F) [RH = 51%]
Pressure (altimeter): 30.07 inches Hg (1018.4 mb)
Winds: from the WNW (290 degrees) at 10 MPH (9 knots; 4.7 m/s)
Visibility: 10 or more miles (16+ km)
Ceiling: at least 12,000 feet AGL
Clouds: sky clear below 12,000 feet AGL
Weather: automated observation with no human augmentation;
there may or may not be significant weather present at this time
Translated TAF for KOWA

There is no translated TAF available for this airport

Find All Airport Services Find A Hotel Find A Rental Car Find A Golf Course Find A Restaurant $100 Hamburger



FBO's on the Field
FBO Company Facility Photos Services Transportation Aviation Fuel Prices: Prices include tax
Catering Weather Repair Courtesy Rental Type 100LL JetA JetA+ MOGAS 8087
 
Owatonna Degner Regional Airport

This FBO has not yet been rated
FS:Avfuel
Last Updated: Sep-18
Login to update fuel prices
SS:
Contact Owatonna Degner Regional AirportMore FBO Information
 
Add another FBO Facility Photos Catering Weather Repair Courtesy Rental Type 100LL JetA JetA+ MOGAS 8087
Services Transportation Aviation Fuel Prices: Prices include tax


model-print
model-print
model-print
model-print